Date String (YYYY-MM-DD hh:mm:ss) UTC,Instrument flags,absolute air pressure of the measurement (hPa),sample flow rate (lpm),inlet stack bypass flow (lpm),air temperature of the measurement (°C),ambient temperature measured by the external sensor (°C),aerosol sample conditioner tube jacket temperature (°C),OPC LED temperature (°C),internal box temperature (°C),relative humidity of the measurement (%),span deviation,mass concentration of particles derived from Lorenz-Mie calculation of OPC scattering (μg/m³),mass concentration of particles derived from Lorenz-Mie calculation of OPC scattering (μg/m³),mass concentration of particles derived from Lorenz-Mie calculation of OPC scattering (μg/m³)
DateTimeUTC,F1_M11,P_M11,Q1_M11,Q2_M11,T1_M11,T2_M11,T3_M11,T4_M11,T5_M11,U1_M11,ZSPAN_M11,X2_M11,X0_M11,X1_M11
2023-10-20 12:00:00,SystemResetWarning,0832.2,5.00,000.00,028.8,026.3,000.0,037.5,030.3,7.8,0000.0,0000.66,0001.10,0000.49
2023-10-20 12:01:00,SystemResetWarning,0832.1,5.00,000.00,028.8,026.5,000.0,037.5,030.3,7.8,0000.0,0000.70,0001.20,0000.50
2023-10-20 12:02:00,SystemResetWarning,0832.2,5.00,000.00,028.8,026.7,000.0,037.5,030.3,7.7,0000.0,0000.70,0001.22,0000.50
2023-10-20 12:03:00,SystemResetWarning,0832.2,5.00,000.00,028.8,026.8,000.0,037.4,030.3,7.8,0000.0,0000.70,0001.23,0000.50
2023-10-20 12:04:00,SystemResetWarning,0832.2,5.00,000.00,028.8,026.9,000.0,037.4,030.3,7.8,0000.0,0000.71,0001.24,0000.50
2023-10-20 12:05:00,SystemResetWarning,0832.2,4.99,000.00,028.8,027.0,000.0,037.4,030.4,7.8,0000.0,0000.70,0001.23,0000.49
2023-10-20 12:06:00,SystemResetWarning,0832.2,5.00,000.00,028.8,027.1,000.0,037.4,030.4,7.7,0000.0,0000.68,0001.20,0000.48
2023-10-20 12:07:00,SystemResetWarning,0832.2,5.00,000.00,028.8,027.2,000.0,037.3,030.4,7.7,0000.0,0000.67,0001.80,0000.47
2023-10-20 12:08:00,SystemResetWarning,0832.2,5.00,000.00,028.8,027.2,000.0,037.3,030.4,7.7,0000.0,0000.68,0002.73,0000.47
2023-10-20 12:09:00,SystemResetWarning,0832.2,5.00,000.00,028.8,027.3,000.0,037.3,030.4,7.7,0000.0,0000.66,0002.58,0000.46
2023-10-20 12:10:00,SystemResetWarning,0832.2,5.00,000.00,028.8,027.3,000.0,037.3,030.4,7.7,0000.0,0000.67,0002.63,0000.45
2023-10-20 12:11:00,SystemResetWarning,0832.2,4.99,000.00,028.9,027.4,000.0,037.4,030.5,7.7,0000.0,0000.68,0002.70,0000.45
2023-10-20 12:12:00,SystemResetWarning,0832.2,5.00,000.00,028.9,027.4,000.0,037.4,030.5,7.8,0000.0,0000.65,0002.63,0000.44
2023-10-20 12:13:00,SystemResetWarning,0832.2,5.00,000.00,028.9,027.4,000.0,037.4,030.5,7.9,0000.0,0000.64,0002.59,0000.44
2023-10-20 12:14:00,SystemResetWarning,0832.2,5.01,000.00,028.9,027.4,000.0,037.3,030.5,7.8,0000.0,0000.61,0002.52,0000.44
2023-10-20 12:15:00,SystemResetWarning,0832.2,5.01,000.00,028.9,027.4,000.0,037.3,030.5,7.7,0000.0,0000.61,0002.50,0000.45
2023-10-20 12:16:00,SystemResetWarning,0832.2,5.00,000.00,028.9,027.4,000.0,037.3,030.5,7.8,0000.0,0000.62,0002.55,0000.45
2023-10-20 12:17:00,SystemResetWarning,0832.2,5.00,000.00,028.9,027.4,000.0,037.3,030.5,7.8,0000.0,0000.63,0002.93,0000.44
2023-10-20 12:18:00,SystemResetWarning,0832.2,5.00,000.00,028.9,027.5,000.0,037.3,030.5,7.7,0000.0,0000.65,0002.36,0000.44
2023-10-20 12:19:00,SystemResetWarning,0832.2,5.01,000.00,028.9,027.5,000.0,037.3,030.5,7.8,0000.0,0000.62,0001.41,0000.45
2023-10-20 12:20:00,SystemResetWarning,0832.2,5.00,000.00,028.9,027.5,000.0,037.3,030.5,7.9,0000.0,0000.60,0001.34,0000.45
2023-10-20 12:21:00,SystemResetWarning,0832.2,5.00,000.00,028.9,027.5,000.0,037.4,030.5,7.9,0000.0,0000.57,0001.22,0000.45
2023-10-20 12:22:00,SystemResetWarning,0832.2,5.00,000.00,028.9,027.5,000.0,037.3,030.5,7.8,0000.0,0000.56,0001.15,0000.45
2023-10-20 12:23:00,SystemResetWarning,0832.2,5.00,000.00,028.9,027.5,000.0,037.4,030.5,7.8,0000.0,0000.56,0001.17,0000.44
2023-10-20 12:24:00,SystemResetWarning,0832.2,5.02,000.00,028.9,027.5,000.0,037.4,030.5,7.8,0000.0,0000.57,0001.20,0000.44
2023-10-20 12:25:00,SystemResetWarning,0832.2,5.00,000.00,028.9,027.5,000.0,037.4,030.5,7.7,0000.0,0000.59,0001.28,0000.45
2023-10-20 12:26:00,SystemResetWarning,0832.2,5.01,000.00,028.9,027.5,000.0,037.4,030.5,7.7,0000.0,0000.58,0001.27,0000.45
2023-10-20 12:27:00,SystemResetWarning,0832.2,4.99,000.00,029.0,027.5,000.0,037.4,030.6,7.7,0000.0,0000.57,0001.18,0000.44
2023-10-20 12:28:00,SystemResetWarning,0832.2,4.99,000.00,029.0,027.5,000.0,037.4,030.6,7.7,0000.0,0000.56,0000.83,0000.44
2023-10-20 12:29:00,SystemResetWarning,0832.2,5.01,000.00,029.0,027.5,000.0,037.4,030.6,7.7,0000.0,0000.56,0000.84,0000.44
2023-10-20 12:30:00,SystemResetWarning,0832.2,5.01,000.00,029.0,027.5,000.0,037.4,030.6,7.7,0000.0,0000.57,0000.88,0000.44
2023-10-20 12:31:00,SystemResetWarning,0832.2,5.01,000.00,029.0,027.5,000.0,037.4,030.6,7.7,0000.0,0000.57,0000.88,0000.44
2023-10-20 12:32:00,SystemResetWarning,0832.2,4.99,000.00,029.0,027.5,000.0,037.4,030.6,7.7,0000.0,0000.56,0000.87,0000.44
2023-10-20 12:33:00,SystemResetWarning,0832.2,5.00,000.00,029.0,027.5,000.0,037.4,030.6,7.6,0000.0,0000.56,0000.86,0000.44
2023-10-20 12:34:00,SystemResetWarning,0832.2,4.99,000.00,029.0,027.5,000.0,037.4,030.6,7.7,0000.0,0000.56,0000.84,0000.44
2023-10-20 12:35:00,SystemResetWarning,0832.2,4.99,000.00,029.0,027.5,000.0,037.4,030.6,7.7,0000.0,0000.55,0000.81,0000.44
2023-10-20 12:36:00,SystemResetWarning,0832.2,4.99,000.00,029.0,027.5,000.0,037.4,030.6,7.6,0000.0,0000.53,0000.80,0000.43
2023-10-20 12:37:00,SystemResetWarning,0832.3,5.01,000.00,029.0,027.5,000.0,037.4,030.6,7.6,0000.0,0000.53,0000.86,0000.43
2023-10-20 12:38:00,SystemResetWarning,0832.3,5.01,000.00,029.0,027.6,000.0,037.4,030.6,7.5,0000.0,0000.53,0000.88,0000.44
2023-10-20 12:39:00,SystemResetWarning,0832.3,4.99,000.00,029.0,027.6,000.0,037.4,030.6,7.5,0000.0,0000.53,0000.85,0000.44
2023-10-20 12:40:00,SystemResetWarning,0832.3,4.99,000.00,029.0,027.6,000.0,037.4,030.6,7.5,0000.0,0000.51,0001.15,0000.44
2023-10-20 12:41:00,SystemResetWarning,0832.3,5.00,000.00,029.0,027.6,000.0,037.4,030.6,7.6,0000.0,0000.50,0001.15,0000.45
2023-10-20 12:42:00,SystemResetWarning,0832.3,5.02,000.00,029.0,027.6,000.0,037.4,030.6,7.6,0000.0,0000.51,0001.18,0000.45
2023-10-20 12:43:00,SystemResetWarning,0832.2,4.99,000.00,029.0,027.6,000.0,037.4,030.6,7.6,0000.0,0000.53,0001.40,0000.45
2023-10-20 12:44:00,SystemResetWarning,0832.2,4.99,000.00,029.0,027.6,000.0,037.4,030.6,7.5,0000.0,0000.55,0001.68,0000.45
2023-10-20 12:45:00,SystemResetWarning,0832.2,5.00,000.00,029.0,027.6,000.0,037.4,030.6,7.5,0000.0,0000.58,0001.76,0000.46
2023-10-20 12:46:00,SystemResetWarning,0832.2,5.01,000.00,029.0,027.6,000.0,037.4,030.7,7.5,0000.0,0000.61,0001.85,0000.46
2023-10-20 12:47:00,SystemResetWarning,0832.2,5.01,000.00,029.0,027.6,000.0,037.5,030.7,7.5,0000.0,0000.62,0001.84,0000.46
2023-10-20 12:48:00,SystemResetWarning,0832.2,5.01,000.00,029.0,027.6,000.0,037.5,030.7,7.6,0000.0,0000.65,0001.84,0000.47
2023-10-20 12:49:00,SystemResetWarning,0832.2,5.00,000.00,029.0,027.6,000.0,037.5,030.7,7.7,0000.0,0000.65,0001.84,0000.47
2023-10-20 12:50:00,SystemResetWarning,0832.2,4.99,000.00,029.0,027.6,000.0,037.5,030.7,7.7,0000.0,0000.70,0001.94,0000.47
2023-10-20 12:51:00,SystemResetWarning,0832.2,5.00,000.00,029.0,027.6,000.0,037.5,030.7,7.7,0000.0,0000.71,0001.69,0000.47
2023-10-20 12:52:00,SystemResetWarning,0832.1,5.00,000.00,029.0,027.6,000.0,037.5,030.7,7.7,0000.0,0000.71,0001.57,0000.47
2023-10-20 12:53:00,SystemResetWarning,0832.1,5.01,000.00,029.0,027.6,000.0,037.5,030.7,7.7,0000.0,0000.72,0001.59,0000.47
2023-10-20 12:54:00,SystemResetWarning,0832.1,5.01,000.00,029.0,027.6,000.0,037.5,030.7,7.7,0000.0,0000.73,0001.55,0000.48
2023-10-20 12:55:00,SystemResetWarning,0832.0,5.00,000.00,029.0,027.6,000.0,037.5,030.7,7.7,0000.0,0000.74,0001.36,0000.48
2023-10-20 12:56:00,SystemResetWarning,0832.1,5.00,000.00,029.1,027.6,000.0,037.5,030.7,7.6,0000.0,0000.72,0001.29,0000.47
2023-10-20 12:57:00,SystemResetWarning,0832.1,4.99,000.00,029.1,027.6,000.0,037.5,030.7,7.6,0000.0,0000.67,0001.48,0000.46
2023-10-20 12:58:00,SystemResetWarning,0832.1,5.00,000.00,029.1,027.6,000.0,037.5,030.7,7.6,0000.0,0000.67,0002.34,0000.46
2023-10-20 12:59:00,SystemResetWarning,0832.1,5.00,000.00,029.1,027.6,000.0,037.5,030.7,7.7,0000.0,0000.65,0003.15,0000.46
